Theta_e
307 306 305 305 305 305 306 306 306 306 305 306 305 303 302 301 298 293 292 295 295 298 299 297 298 301 301 302 304 303 302 309 308 302 302 300 299 304 306 306 308 308 308 309 309 310 311 310 311 311 311 312 312 311 311 310 309 308 309 310 309 307 306 306 307 308 311 311 311 309 308 308 308 308
307 307 305 305 305 305 305 305 305 305 305 305 305 305 303 301 298 294 293 293 296 296 297 297 298 299 300 302 302 303 302 309 307 301 300 300 300 306 306 305 306 305 305 305 306 309 310 310 310 311 312 312 312 311 311 310 309 308 308 309 308 305 305 305 307 308 310 310 309 308 308 308 308 308
306 305 304 304 304 305 305 305 306 306 305 304 304 304 304 301 299 298 296 293 296 297 296 297 299 298 298 300 300 301 302 307 306 301 300 301 308 308 306 307 306 305 304 304 306 308 308 308 309 310 311 312 311 311 310 309 308 307 307 306 306 305 304 305 306 308 310 310 310 309 308 308 308 308
305 305 304 304 304 304 304 304 304 304 306 305 304 304 303 301 299 298 296 295 295 297 296 296 298 298 298 298 298 299 301 304 306 300 300 302 305 301 300 304 305 304 303 303 303 304 304 306 308 309 310 310 310 310 309 307 306 306 305 305 305 304 303 304 305 307 308 309 309 308 308 308 307 307
304 304 304 303 303 304 304 304 304 304 304 304 304 303 302 300 299 299 297 295 295 296 297 297 297 298 297 297 297 298 299 300 301 303 300 300 300 300 300 300 303 304 302 301 302 301 302 303 306 307 308 307 308 307 304 303 304 305 305 305 303 302 303 303 303 304 305 307 307 307 307 307 306 307
305 304 303 303 304 304 304 303 304 304 303 303 303 302 302 301 301 300 297 294 293 293 294 294 295 295 296 295 297 296 297 298 300 300 300 301 299 300 299 299 301 304 302 301 301 301 301 301 302 303 303 301 301 302 302 302 302 303 304 301 299 301 302 302 302 303 305 305 305 306 306 305 306 307
304 304 304 303 304 305 303 303 302 303 303 303 303 302 302 301 301 300 299 295 293 293 293 293 293 293 295 294 295 297 298 298 298 299 299 300 301 301 300 300 300 303 302 301 301 301 301 301 301 301 301 301 301 301 301 301 301 301 300 300 300 300 300 300 300 302 304 303 303 304 305 304 306 308
304 303 302 302 303 303 302 301 302 302 302 303 303 302 302 301 301 300 299 298 295 292 291 291 292 294 292 294 295 298 297 297 298 297 299 300 300 299 300 299 299 303 303 301 301 301 301 301 301 301 301 301 301 301 301 301 300 300 300 300 300 300 299 299 299 299 301 301 301 302 302 302 305 308
303 303 302 301 302 302 302 301 301 301 301 302 302 302 301 300 300 300 298 297 295 293 291 291 292 292 292 294 294 296 295 297 297 297 298 298 298 298 298 300 302 303 302 301 301 301 301 301 301 301 301 301 300 300 301 300 300 300 301 300 300 300 299 299 299 299 299 299 299 300 301 301 303 306
302 301 301 301 302 302 302 301 300 301 300 301 301 301 301 299 298 297 297 296 294 293 291 290 291 291 292 292 292 294 294 295 296 296 297 297 298 297 297 298 300 300 299 296 297 299 299 300 301 301 300 300 300 301 300 300 301 301 301 300 299 299 299 298 298 298 298 298 298 298 298 299 301 304
299 300 300 299 300 300 300 300 300 300 299 301 300 302 300 298 297 296 295 295 293 292 291 291 290 290 292 291 291 293 294 295 295 294 294 295 297 297 296 296 298 298 297 297 300 300 300 301 300 300 300 300 301 301 300 301 301 302 301 299 299 299 299 298 298 298 298 298 297 297 297 297 299 301
298 297 297 297 298 299 299 299 299 299 299 299 299 299 298 296 295 294 294 293 292 292 291 289 289 289 290 290 291 294 292 292 292 294 294 292 294 295 295 293 295 297 296 294 294 298 298 298 299 300 299 300 301 301 300 301 302 302 300 299 298 298 298 298 298 298 298 298 298 297 297 296 296 298
297 297 297 298 299 305 306 306 305 303 303 300 299 298 297 296 294 293 293 292 291 290 290 289 289 288 289 289 290 290 289 289 289 292 291 292 294 293 293 295 294 296 294 294 293 294 295 295 295 295 295 297 300 299 301 300 301 301 299 298 298 298 298 298 298 298 298 298 298 297 297 297 296 295
296 298 300 306 310 308 306 304 300 299 301 303 301 298 297 295 294 292 291 291 290 291 289 289 287 288 288 288 289 289 290 290 290 291 291 291 292 291 292 293 292 295 293 292 292 293 295 295 294 294 294 296 297 297 297 297 299 300 298 298 298 298 298 298 298 298 298 298 297 297 297 297 296 295
298 298 299 301 305 304 303 300 298 297 298 298 299 300 301 300 295 292 291 291 291 291 290 288 287 287 287 289 289 290 291 290 290 289 289 290 291 289 288 287 293 293 293 292 289 292 293 293 293 294 294 295 296 296 297 299 299 299 298 298 298 298 298 298 298 298 298 297 297 297 297 297 296 296
296 296 296 296 297 296 297 297 297 298 296 295 295 296 296 297 297 296 294 293 290 289 289 289 289 287 288 290 288 290 289 291 290 290 288 288 288 289 288 288 287 293 295 291 290 291 293 292 294 293 295 295 295 297 298 299 298 298 298 298 298 297 297 297 297 297 297 297 297 296 296 296 296 295
296 296 296 297 299 302 305 303 296 297 298 299 298 298 298 297 296 293 294 295 295 291 290 290 289 288 289 290 292 294 293 291 290 289 290 290 289 289 288 288 287 293 294 292 290 288 292 291 293 292 295 294 295 296 298 298 298 298 298 298 297 297 297 297 297 297 297 297 297 296 296 295 295 295
297 298 299 300 300 298 298 296 296 296 296 295 296 295 295 296 298 296 294 295 295 296 294 291 291 292 292 292 291 294 294 292 292 290 290 290 290 291 291 292 292 293 295 292 288 287 291 291 291 291 294 295 295 295 297 298 298 298 298 297 297 297 297 297 297 297 296 296 296 296 296 295 295 295
298 299 300 298 297 295 295 297 297 296 295 294 294 293 293 293 293 294 294 294 294 297 294 292 292 292 293 293 292 292 293 293 292 292 291 291 291 292 292 291 290 292 293 292 290 288 291 289 290 292 293 294 293 295 297 297 298 297 297 297 297 297 297 297 297 297 296 296 296 296 296 295 294 294
299 298 297 295 293 293 294 299 297 298 297 296 294 293 292 292 293 293 300 296 296 297 294 293 293 294 294 296 294 294 293 292 292 295 293 292 290 289 288 288 289 290 292 292 291 287 289 291 290 291 292 292 293 295 294 297 297 297 297 297 296 296 296 296 296 296 296 296 296 296 296 295 294 294
298 298 296 293 291 291 291 293 293 295 299 297 295 293 291 293 293 293 294 297 296 294 293 293 293 293 293 293 293 293 293 292 293 291 291 290 288 288 286 288 287 290 291 289 290 289 288 291 288 291 291 292 292 293 294 294 297 297 297 296 296 296 296 296 296 296 296 296 296 296 296 295 295 295
297 299 302 298 291 290 291 291 292 294 299 298 296 294 291 292 292 293 294 296 296 296 296 295 294 293 292 292 292 292 293 292 295 292 291 289 288 289 288 286 286 289 290 289 291 289 288 290 288 289 289 290 290 293 293 294 295 296 296 296 296 296 296 296 296 296 296 296 296 296 296 295 295 294
297 299 301 300 295 293 293 290 292 294 298 298 298 296 293 292 292 293 291 291 291 292 292 291 294 293 296 296 293 296 296 294 297 293 293 290 291 288 288 288 287 287 288 288 290 290 289 290 290 288 288 288 290 289 293 294 294 294 293 294 294 296 296 296 296 296 296 296 296 296 295 295 295 293
293 294 293 296 292 291 290 290 291 293 295 297 297 296 294 294 294 291 288 293 292 289 291 290 291 291 291 291 294 293 292 296 299 293 292 292 292 291 289 289 288 286 285 285 291 290 287 286 290 288 289 287 287 292 292 292 293 293 293 293 292 295 296 296 295 295 295 295 295 295 295 295 294 293
291 291 290 289 291 290 290 290 291 292 293 294 294 294 293 292 291 290 287 292 297 290 292 292 291 292 291 292 289 290 290 293 293 293 292 292 292 291 290 288 288 287 288 291 294 290 289 288 289 289 288 287 288 288 290 290 292 292 293 292 292 293 293 294 294 294 295 295 295 295 294 294 294 294
290 289 287 289 291 290 290 290 290 291 292 292 292 289 290 290 289 291 291 289 290 290 291 289 290 290 290 290 289 291 291 292 294 291 289 290 290 291 291 290 288 287 289 292 294 291 289 291 289 289 288 288 288 288 287 289 291 292 292 292 292 292 293 293 293 293 293 293 293 294 293 294 294 294
290 288 288 291 292 289 289 290 290 290 292 293 289 288 288 289 288 291 289 288 289 289 289 289 288 288 287 290 289 288 290 290 290 290 290 291 291 292 292 292 291 291 292 293 294 292 290 289 290 288 289 288 288 288 288 287 290 291 291 292 291 292 293 292 292 292 292 292 292 294 293 292 293 293
289 288 287 290 290 289 290 289 289 290 291 289 288 288 288 289 291 290 288 286 288 288 286 287 287 289 288 287 287 289 290 290 290 291 292 291 291 291 292 292 292 293 292 292 292 292 291 290 291 290 288 288 287 286 287 288 289 289 289 291 291 291 292 292 291 291 291 291 290 290 290 289 291 291
291 290 289 290 289 289 289 289 289 289 289 289 288 288 288 295 285 287 286 287 287 286 287 287 288 287 289 289 290 289 288 289 290 288 292 291 291 290 291 291 291 291 293 294 292 292 290 290 290 290 290 288 288 289 287 287 288 289 289 288 287 290 290 291 290 289 289 289 288 289 288 288 289 291
291 290 289 290 289 289 289 289 287 286 286 290 291 290 291 287 285 286 285 287 287 286 286 288 288 290 289 290 289 289 289 290 289 289 290 290 292 291 291 292 292 292 292 292 292 291 292 291 290 290 290 290 289 289 289 287 287 287 288 287 288 289 288 289 289 288 288 287 288 288 288 288 289 290
291 290 290 289 289 289 289 289 289 291 291 289 289 288 290 287 285 286 285 286 288 287 287 287 287 287 288 288 288 289 288 289 290 289 291 290 290 290 290 290 291 290 292 292 292 292 292 292 292 290 290 289 290 290 289 288 286 286 286 287 287 284 286 287 287 287 287 287 287 287 287 288 288 290
292 290 290 289 288 287 286 285 285 285 286 286 286 287 286 287 288 293 295 294 287 286 286 287 287 288 287 291 289 286 287 288 290 290 290 290 290 290 289 289 288 287 289 291 292 293 293 293 292 292 290 289 288 288 288 287 285 284 285 286 287 286 286 285 285 286 287 286 285 285 286 286 286 287
289 287 286 286 285 284 284 283 285 284 286 287 287 288 288 288 287 287 287 289 288 289 287 289 289 289 287 288 286 287 287 289 289 289 290 289 290 289 287 287 286 287 287 289 290 291 292 292 293 291 291 290 289 288 287 283 284 284 284 285 285 284 284 285 285 285 286 285 284 284 284 285 286 286
286 285 284 285 285 285 284 284 283 285 285 287 286 287 288 287 286 286 286 287 288 288 288 287 287 288 287 289 287 288 288 288 289 288 291 289 289 288 286 287 288 288 287 287 288 289 290 290 290 291 290 288 290 289 288 284 282 283 284 284 283 283 284 285 285 285 285 283 282 282 282 283 284 285
285 284 283 283 282 283 285 283 284 283 284 284 284 285 285 285 286 286 288 288 286 286 286 287 287 285 287 289 287 288 288 288 289 289 288 288 287 287 287 287 288 288 288 288 288 288 288 288 287 285 284 284 284 284 290 287 283 284 283 283 283 283 283 285 284 284 283 283 283 281 281 281 282 283
283 283 283 283 283 283 283 284 284 283 284 284 286 284 284 285 284 285 286 287 289 287 287 287 286 285 285 288 287 288 286 285 286 288 287 286 286 286 286 287 286 287 287 287 287 287 286 286 285 282 280 280 279 279 281 288 288 283 282 281 282 282 283 283 283 283 282 282 282 280 279 279 279 282
284 283 284 284 284 284 284 285 284 285 286 285 286 286 285 285 285 286 288 286 289 288 289 288 287 285 286 286 286 285 285 286 286 285 285 284 285 286 285 285 285 286 287 287 288 288 287 285 283 281 279 278 276 276 278 281 286 288 283 281 281 282 282 281 281 280 280 281 280 280 279 279 278 280
285 285 285 284 285 286 285 285 284 285 287 287 287 287 287 288 288 289 289 289 288 287 287 288 287 286 287 285 287 287 286 286 286 284 284 284 284 285 285 285 284 285 286 286 287 286 287 284 282 282 280 277 275 276 276 279 279 284 288 284 281 281 282 280 279 278 278 279 279 279 278 279 279 280
287 286 286 286 286 286 287 287 286 287 288 287 287 287 288 288 288 287 288 289 290 288 288 288 290 288 287 286 286 286 287 286 285 284 284 285 285 285 285 284 284 284 283 283 284 285 284 283 282 281 280 278 276 277 277 276 277 280 284 288 284 280 281 279 278 278 278 278 279 279 280 280 282 285
288 288 288 288 288 288 289 289 289 289 290 290 289 289 289 287 287 288 288 287 289 290 290 289 288 287 285 285 285 285 286 287 285 284 285 284 284 285 284 282 284 284 282 282 282 281 281 281 282 281 280 280 281 281 279 278 277 277 278 283 288 285 281 279 278 277 277 278 278 277 277 279 278 279
289 289 289 289 289 289 289 289 290 290 289 290 290 289 289 288 288 288 288 288 288 288 288 287 286 287 287 286 286 286 286 285 284 284 284 284 284 284 284 283 282 282 280 279 280 280 280 281 282 282 281 280 280 279 276 276 276 278 279 281 285 287 286 285 281 279 277 278 278 277 276 276 275 276
290 290 291 290 290 291 290 290 290 290 290 289 289 289 289 288 288 290 289 289 289 288 287 286 286 286 286 286 285 285 285 285 284 284 284 283 283 283 283 282 281 280 279 278 279 280 280 281 281 281 280 279 277 277 274 273 273 276 277 278 279 283 285 285 285 285 283 281 278 276 276 276 275 274
290 290 290 290 289 289 290 290 291 290 290 289 289 290 288 288 287 287 287 288 287 286 286 286 286 286 286 285 284 284 285 285 284 284 283 282 282 281 280 280 280 280 280 278 278 278 279 280 280 279 278 275 275 275 273 274 274 273 274 275 277 278 279 283 283 284 284 285 284 281 278 276 273 272
290 290 290 290 290 290 290 289 290 290 290 290 289 289 288 288 287 287 287 287 287 287 286 287 286 286 286 285 285 285 285 285 284 284 283 282 281 280 278 278 278 278 277 276 275 276 277 277 277 276 275 275 274 274 274 273 274 274 273 274 275 274 275 276 277 280 281 282 283 282 283 283 282 282
289 290 290 289 289 289 289 289 289 290 290 289 289 287 287 287 287 287 286 287 287 287 287 287 286 286 286 285 285 285 285 286 284 282 282 280 279 279 278 278 277 276 276 275 275 275 274 274 274 274 274 274 274 274 275 275 274 274 274 273 273 274 273 275 275 275 275 275 281 282 282 282 282 282
Wind_Speed
6 6 6 6 6 6 5 6 5 5 5 5 5 4 10 10 12 4 3 1 1 4 3 3 3 3 5 5 6 6 5 6 5 3 1 1 3 5 6 5 8 8 8 8 10 11 12 14 15 16 17 18 17 17 17 16 17 18 21 22 22 23 24 25 26 28 30 30 30 28 26 25 24 24
5 6 6 6 7 5 6 6 4 5 5 6 6 6 5 6 11 6 7 3 0 2 4 3 2 4 5 5 6 4 5 7 5 4 3 2 3 6 6 6 6 9 9 11 12 11 11 14 16 17 18 19 18 18 18 18 18 19 21 22 18 19 23 25 27 28 30 31 31 29 27 25 25 24
6 6 6 6 7 6 6 6 5 4 6 6 7 6 6 4 8 10 7 7 1 1 4 3 2 4 4 4 4 5 5 5 5 5 4 3 3 4 5 8 6 9 10 12 12 13 12 12 15 16 18 20 19 19 19 19 19 19 20 21 17 17 20 23 26 29 30 31 32 30 28 27 26 25
5 5 6 6 7 6 6 6 5 5 4 6 7 7 7 7 6 7 7 10 6 3 3 4 3 4 4 5 6 6 5 6 7 4 4 5 7 5 5 7 9 10 11 11 12 12 12 11 13 16 18 20 20 20 19 18 18 18 19 20 17 15 17 22 25 28 29 30 31 30 29 28 27 26
4 5 6 6 5 5 7 6 5 5 5 7 7 7 8 8 6 8 8 10 7 3 2 5 4 4 4 6 5 5 5 6 7 6 4 5 5 5 6 4 8 12 12 12 14 14 14 14 14 16 17 18 19 18 16 15 14 16 19 19 16 14 16 20 22 24 28 29 30 29 29 29 27 26
5 6 7 5 5 5 7 5 6 5 6 7 8 7 7 8 7 5 7 6 6 5 3 6 4 5 4 5 4 4 5 6 6 7 7 6 4 5 5 6 5 11 12 12 13 14 15 16 15 15 17 17 17 17 16 16 17 17 17 19 17 14 13 17 20 23 26 28 28 27 28 28 28 28
6 7 6 5 5 5 6 4 4 4 6 6 8 7 6 7 6 6 6 6 6 7 3 2 4 3 4 4 4 4 3 3 3 5 6 6 6 5 5 5 4 8 12 12 13 14 15 16 16 17 16 16 17 17 16 16 17 18 18 19 18 15 13 14 18 20 24 26 27 26 26 27 28 28
7 7 6 5 6 6 6 4 5 4 4 7 7 7 6 7 7 6 6 6 5 3 6 3 3 2 3 3 3 3 2 4 4 3 4 6 7 6 6 5 4 7 11 12 12 13 14 15 15 15 16 16 16 17 17 17 17 18 18 19 19 17 12 12 16 19 20 21 24 25 26 26 28 28
6 6 5 5 6 6 7 4 5 4 5 4 6 7 7 8 7 6 7 7 7 7 7 2 3 2 1 1 2 4 4 5 5 4 5 4 6 7 5 4 4 7 10 11 12 12 13 14 14 15 15 15 16 16 17 17 17 18 19 20 20 19 14 11 14 17 20 21 21 22 25 23 25 28
6 6 5 4 6 6 7 5 4 5 5 5 5 6 7 8 8 9 8 8 8 7 5 4 4 4 3 3 3 3 3 5 6 7 7 6 6 7 8 6 5 4 4 5 6 8 9 11 13 14 14 15 15 16 16 17 17 18 19 20 20 20 17 12 12 15 18 20 20 21 20 21 24 26
6 6 5 5 5 6 6 6 6 6 5 5 5 6 8 7 9 8 7 7 7 6 6 4 3 3 2 2 4 3 2 1 4 4 7 8 7 6 5 6 6 5 7 7 9 8 8 10 9 12 14 13 15 15 15 15 16 17 19 19 20 19 18 13 11 14 17 19 19 19 21 21 21 24
6 6 5 5 4 6 5 6 5 6 6 5 6 6 7 8 9 8 7 7 6 6 5 4 3 2 1 3 1 2 3 5 4 5 3 3 6 8 5 3 4 6 6 7 8 8 9 10 11 13 12 13 14 14 13 14 15 17 18 19 20 19 18 15 12 13 15 17 19 19 20 21 21 21
5 5 5 5 4 5 7 8 6 6 5 7 8 6 8 8 8 7 7 7 7 6 6 5 2 2 4 3 4 6 6 5 2 3 2 4 5 5 6 7 3 1 4 7 6 6 5 7 8 7 7 9 10 12 13 11 14 17 17 18 20 20 19 17 14 13 14 16 18 20 20 21 21 21
5 5 5 5 11 12 12 11 11 10 9 8 7 8 8 8 8 8 7 7 7 6 6 4 4 6 4 3 3 3 1 1 2 5 7 7 6 4 6 5 3 2 3 5 7 7 4 4 7 7 7 8 8 7 8 9 12 15 17 18 19 20 19 18 16 14 14 15 17 18 19 20 21 20
6 5 5 5 8 10 10 9 13 12 12 12 11 9 9 9 11 9 8 7 6 5 4 3 3 3 3 2 0 1 1 1 2 1 2 3 4 5 3 4 8 2 3 4 4 8 5 3 6 8 7 8 8 8 8 14 16 17 17 17 18 19 19 19 18 17 16 15 16 17 18 19 20 20
7 7 7 5 4 5 7 7 9 10 13 14 13 13 12 11 9 8 8 7 5 4 5 3 3 3 2 0 1 2 3 4 5 5 3 2 2 5 4 3 3 6 3 4 5 8 6 3 5 7 8 7 7 9 13 16 16 16 17 17 18 19 20 19 18 18 18 17 16 16 17 18 19 20
7 7 8 7 4 6 12 8 6 7 8 11 13 14 13 11 11 10 9 7 6 6 6 5 3 2 2 1 0 1 1 1 2 4 6 4 4 1 3 4 3 8 0 3 4 5 8 4 7 7 9 7 7 10 12 16 16 16 16 17 17 18 19 20 20 18 18 18 17 17 16 16 18 19
8 8 8 7 6 4 4 4 6 6 7 7 7 7 6 6 6 8 9 8 8 6 5 5 2 3 3 1 2 1 2 1 1 2 4 4 4 5 4 5 6 7 2 2 1 4 8 4 5 7 9 7 8 9 12 16 16 15 16 16 17 18 19 20 21 20 19 19 19 19 18 15 16 17
7 5 5 5 7 5 4 4 5 7 7 7 7 6 5 5 5 5 4 4 4 3 3 4 3 3 4 3 3 2 3 2 2 3 3 3 3 5 5 4 3 6 1 1 0 3 7 3 5 7 8 7 9 9 10 14 15 16 16 16 16 17 19 20 21 21 21 20 20 20 20 18 15 16
5 5 6 6 6 5 5 6 9 8 7 7 8 7 5 4 3 2 2 1 2 0 2 3 3 4 4 5 3 3 2 2 1 1 1 0 0 4 7 4 6 3 6 1 1 2 6 4 0 6 7 7 8 9 8 11 15 16 15 16 15 16 18 20 21 21 22 21 20 20 20 19 17 15
5 5 6 6 6 5 5 6 9 10 9 6 6 6 5 2 1 3 2 2 1 2 4 7 8 8 8 7 7 7 7 4 1 1 5 6 1 5 4 6 5 7 5 3 0 1 5 7 3 6 5 6 7 7 8 8 12 15 14 14 15 15 17 19 20 21 21 21 21 21 20 19 17 15
5 7 12 9 7 6 4 5 8 10 8 6 6 5 4 3 1 3 3 2 2 2 3 5 7 7 8 8 8 7 9 5 4 3 3 3 1 3 1 3 3 7 6 3 0 4 4 7 4 4 6 6 5 6 7 9 10 12 11 14 14 14 17 18 19 19 20 21 21 21 21 20 16 10
6 6 9 11 9 7 6 7 8 9 8 7 7 6 5 4 4 5 1 1 3 5 6 4 6 3 3 0 1 2 3 5 6 5 5 2 1 3 6 3 3 6 6 3 0 4 6 5 5 1 5 5 6 5 7 8 8 8 8 9 10 14 16 17 17 18 19 20 20 19 20 19 15 8
4 5 4 7 11 11 10 9 9 8 9 8 6 6 6 5 5 3 1 0 0 1 2 3 2 2 2 1 1 1 2 0 4 5 4 5 4 3 5 4 1 1 3 3 1 3 4 0 6 4 0 3 6 8 7 8 8 7 7 9 9 13 14 14 13 16 18 18 18 18 19 20 16 10
7 6 6 5 8 12 11 10 10 9 8 8 7 7 7 6 3 4 2 1 0 2 2 2 2 2 1 1 1 1 1 1 1 2 3 4 5 4 4 4 2 3 5 5 2 1 2 2 5 5 5 2 4 6 7 6 7 7 7 7 9 10 9 9 9 10 13 16 16 17 18 19 20 15
6 7 6 6 8 11 11 11 11 10 9 9 6 5 8 7 8 5 2 2 2 1 1 3 3 1 1 0 2 3 3 3 3 2 2 3 4 5 4 4 2 1 4 4 4 1 3 6 4 5 4 4 6 5 6 7 7 8 7 7 8 9 8 10 9 10 10 10 10 13 16 19 18 21
7 5 6 6 10 11 11 10 11 11 10 8 6 10 9 7 8 4 3 2 2 4 3 3 2 2 0 1 2 2 2 2 3 3 3 3 1 2 1 4 5 5 6 5 3 0 4 4 4 4 4 4 5 7 6 7 8 7 8 9 8 8 8 8 10 10 10 10 10 15 14 15 16 17
7 7 6 7 11 11 11 10 10 10 8 7 9 8 8 7 5 2 3 3 2 2 4 2 2 2 0 0 0 0 2 2 3 4 2 3 2 2 5 2 2 4 4 4 4 4 4 4 6 4 3 4 6 5 7 5 5 6 9 9 7 8 8 9 10 10 9 9 9 10 9 10 11 11
8 9 11 11 12 11 10 10 9 7 7 8 7 7 6 4 2 2 2 2 2 4 3 3 1 0 0 2 1 3 2 3 1 2 5 4 2 2 2 3 2 1 2 4 5 4 4 3 4 4 5 4 5 5 5 7 6 8 9 10 10 9 7 8 8 9 10 9 9 9 9 9 10 10
12 12 11 12 11 9 8 6 5 5 4 5 5 6 5 3 3 4 3 1 2 3 3 4 3 1 0 0 1 0 1 1 3 1 3 5 6 6 6 7 7 6 4 4 5 5 5 4 4 4 5 5 4 5 6 6 6 8 9 8 8 6 5 9 10 9 10 9 9 8 8 8 9 10
7 9 9 8 9 6 7 6 5 5 4 2 2 1 2 3 3 4 3 3 2 3 4 3 3 2 1 1 1 2 3 3 3 1 1 3 4 3 3 3 5 6 7 6 5 4 5 5 5 4 5 4 5 6 6 4 8 8 8 7 8 8 8 8 8 9 9 8 7 7 8 9 9 10
6 6 5 5 3 3 3 3 2 2 1 1 1 2 2 2 3 3 4 3 1 3 3 3 1 0 1 2 0 1 2 2 5 1 2 1 5 3 2 4 4 4 6 7 7 7 6 5 5 5 4 4 5 6 4 6 7 6 7 7 7 7 7 9 9 9 9 8 8 9 8 8 9 9
5 5 6 5 4 4 5 4 4 3 2 3 2 3 3 1 2 3 3 3 5 4 3 5 4 3 1 0 0 1 2 3 4 2 4 1 1 3 1 1 3 3 5 7 6 6 6 6 6 5 6 5 4 3 3 6 6 6 7 8 7 7 7 8 8 9 8 8 8 8 9 8 8 9
7 6 6 6 7 6 5 6 5 6 5 4 4 4 3 2 2 3 3 4 5 4 5 5 4 3 2 1 1 1 3 5 6 2 1 2 3 2 2 3 4 3 2 4 5 6 6 6 6 6 6 6 3 2 3 4 6 6 6 6 7 7 8 7 8 8 8 7 7 8 8 9 8 8
7 7 7 7 5 5 6 7 7 6 5 5 4 5 4 3 3 3 4 6 5 5 4 4 4 3 3 4 3 4 4 4 6 5 2 1 1 1 0 1 4 4 4 4 5 6 5 5 6 6 7 8 9 4 2 4 5 6 6 7 7 7 8 8 7 8 7 8 7 7 7 7 8 8
7 7 7 7 7 6 6 7 6 4 5 5 5 5 3 5 4 5 6 5 6 7 5 6 5 4 4 4 5 5 5 4 5 3 4 3 3 3 1 0 1 3 2 3 4 5 4 5 5 6 7 7 6 8 9 10 9 3 7 7 7 6 6 7 7 6 8 8 8 7 7 8 8 8
8 6 6 7 6 6 7 7 6 6 6 6 6 5 6 5 6 6 6 3 6 6 8 8 7 5 5 5 4 4 2 1 3 2 2 2 1 1 1 2 2 3 3 4 3 4 3 5 5 5 5 6 6 6 8 5 11 9 5 6 6 7 7 7 7 8 7 7 7 7 6 6 6 7
8 7 7 6 7 7 7 6 5 6 5 6 6 5 6 6 5 6 3 5 7 7 7 7 6 5 4 4 4 4 1 1 0 0 0 1 1 0 1 1 3 3 3 3 3 3 3 4 5 5 4 4 5 6 5 5 5 8 9 6 5 6 6 6 7 6 7 6 6 6 5 6 7 7
7 8 8 8 7 7 7 7 6 6 6 6 6 7 7 7 6 4 5 7 7 7 7 5 6 6 4 3 3 4 3 0 1 1 1 0 1 0 1 1 3 3 2 4 4 4 4 5 5 4 3 4 4 5 4 3 4 5 9 10 4 5 6 5 4 6 6 7 7 6 5 4 5 6
6 7 8 7 7 6 7 6 6 6 6 7 7 7 7 7 7 7 7 7 6 6 7 6 3 2 1 3 4 3 2 2 2 1 1 2 1 1 2 1 1 1 2 3 4 5 5 5 5 5 4 5 5 6 6 5 4 3 4 7 10 7 7 5 6 6 6 7 6 6 8 8 9 8
6 6 6 6 6 6 6 6 6 6 6 6 6 6 7 7 7 8 8 7 5 5 6 4 3 3 4 5 5 5 4 3 2 2 2 2 2 2 2 3 2 1 2 3 2 4 4 4 5 7 4 4 4 3 2 4 5 7 8 8 9 12 13 11 6 5 5 4 5 6 7 8 7 6
7 7 6 6 6 6 6 6 5 6 6 6 6 6 6 7 8 9 8 6 6 5 5 4 3 4 4 4 4 4 6 6 5 3 2 3 3 2 2 3 2 1 3 2 3 3 4 3 4 5 4 4 5 7 4 4 4 6 6 5 6 8 10 13 14 11 7 6 7 8 7 6 4 6
7 7 7 7 6 5 5 6 5 6 6 5 6 6 6 7 5 6 5 6 5 5 5 4 4 5 4 3 3 5 5 5 4 4 3 3 3 3 3 2 1 1 1 1 2 2 4 4 4 5 5 5 4 2 3 4 4 4 4 5 6 6 7 10 11 13 11 13 15 10 7 6 4 6
7 6 6 6 6 6 5 6 6 6 6 5 5 5 6 6 6 7 6 6 6 5 5 6 6 5 5 4 5 4 5 5 5 5 4 3 3 3 3 2 1 1 1 1 2 3 3 5 4 3 5 5 3 3 5 4 6 6 5 4 4 6 7 7 7 7 7 6 13 18 17 15 12 10
6 6 6 6 6 5 5 5 6 6 6 4 3 4 4 6 6 6 5 5 6 6 6 6 6 5 5 6 6 5 3 4 4 4 4 4 4 3 2 2 2 2 2 1 2 3 4 4 5 4 3 4 2 2 4 4 4 4 4 4 6 6 6 6 7 8 7 7 9 16 16 15 14 14
Wind_Direction
99 93 92 98 95 89 88 83 83 90 85 94 103 109 136 135 126 124 102 15 108 6 28 97 351 18 34 29 26 26 18 8 20 354 339 289 264 268 294 330 354 346 325 339 338 344 348 345 340 334 333 337 341 340 335 333 332 332 329 333 349 350 346 344 346 346 348 346 344 341 337 334 330 326
101 101 90 90 89 90 85 88 89 81 83 89 98 104 100 120 131 143 129 116 234 94 18 56 82 17 28 26 30 28 7 0 16 10 351 314 281 266 293 300 353 359 1 1 353 345 339 337 336 332 328 327 332 333 332 329 325 323 321 325 337 346 346 345 347 346 348 348 347 344 340 336 332 328
107 107 99 92 90 90 91 85 76 69 74 87 98 94 100 84 118 126 128 114 338 125 82 39 48 75 32 22 37 19 4 349 10 13 4 347 1 1 337 327 333 2 9 12 4 360 347 331 327 326 323 324 325 325 327 326 321 314 315 315 328 341 342 344 346 347 347 349 348 347 344 341 337 332
105 106 101 97 101 98 92 85 78 75 70 86 91 96 95 89 93 105 103 106 98 23 112 102 59 60 51 33 30 16 353 356 10 3 358 356 22 24 5 347 358 7 10 10 12 7 358 341 331 330 328 329 326 324 320 318 313 308 305 308 321 333 339 342 344 345 347 349 349 349 348 346 343 337
99 98 98 94 96 102 97 96 90 82 83 84 86 93 98 97 96 104 107 110 114 54 27 66 59 30 36 36 12 22 4 0 351 355 354 7 20 24 10 355 3 7 6 7 8 6 1 355 345 338 333 327 326 323 315 309 305 303 302 303 313 328 337 339 340 343 347 350 351 351 352 350 346 342
100 101 98 91 91 94 103 102 96 100 89 91 93 90 103 107 108 108 110 114 109 101 28 48 25 45 28 51 5 30 12 355 353 358 353 2 20 24 8 4 350 1 3 2 2 1 357 353 348 343 339 335 331 329 324 315 312 306 299 302 308 322 334 336 338 343 347 350 352 353 354 353 350 349
109 98 97 99 99 97 93 92 100 93 93 92 95 98 98 105 106 103 103 111 105 101 64 29 56 32 21 54 356 352 6 356 341 360 1 356 360 17 11 4 344 350 358 354 357 358 355 350 348 346 343 340 337 337 335 329 322 317 311 307 310 321 332 334 337 340 344 347 351 355 355 354 355 353
107 109 102 103 105 104 102 100 94 85 89 93 97 94 93 98 101 100 103 104 118 123 99 12 63 12 45 2 1 350 6 14 356 1 346 7 15 12 7 1 349 342 346 346 351 354 352 348 346 344 345 343 343 339 339 338 337 335 328 320 319 322 330 332 331 338 339 341 348 352 356 355 360 1
105 101 107 115 108 108 106 96 89 84 78 69 81 88 92 96 93 85 91 91 95 104 103 94 21 8 21 299 10 27 21 352 4 355 20 11 19 12 360 355 348 338 339 340 347 350 347 344 342 344 344 344 342 342 343 343 342 342 340 335 331 331 333 332 331 333 337 340 347 351 355 353 358 3
105 110 110 107 110 107 111 113 103 90 89 81 83 92 97 101 97 95 92 96 95 94 96 99 62 22 38 10 19 14 21 34 16 8 357 11 26 21 358 343 341 335 335 334 339 343 342 337 338 341 342 340 342 345 343 342 342 344 346 344 342 341 340 336 329 331 335 338 345 352 353 355 359 3
104 107 108 104 106 108 115 116 116 108 91 90 89 109 113 106 103 101 100 99 97 100 101 74 78 68 358 75 41 349 355 97 88 33 5 6 356 9 11 330 327 344 335 328 336 340 334 341 344 338 340 337 342 342 340 340 341 345 348 347 348 348 347 342 329 327 332 336 342 350 354 356 358 4
103 106 106 106 109 115 119 119 120 112 113 109 97 108 109 108 104 106 105 95 98 94 80 86 78 22 42 354 330 304 19 32 18 34 38 11 345 349 338 282 294 321 346 335 335 337 348 347 341 341 334 335 339 336 338 334 338 341 345 347 350 353 353 349 334 326 330 335 340 349 353 355 356 0
106 104 107 110 122 120 116 114 116 119 131 123 117 111 110 108 105 101 95 105 100 86 88 64 35 65 47 31 39 24 30 36 355 286 336 5 10 348 344 324 293 236 334 319 326 336 336 332 334 323 331 331 334 331 333 332 336 337 342 344 349 354 355 353 344 331 329 334 339 346 352 354 355 357
106 112 113 120 117 109 108 102 102 101 99 101 115 132 121 116 107 109 111 107 106 107 101 113 103 68 51 32 28 53 356 257 310 11 15 17 334 352 354 309 288 297 10 340 334 321 327 345 321 337 330 320 330 323 326 328 333 337 340 342 345 352 355 354 351 341 333 332 337 344 350 353 353 354
118 100 95 98 104 104 100 100 102 100 99 100 102 104 113 124 129 126 116 116 123 121 128 162 107 116 90 33 272 83 341 29 51 14 0 358 357 21 15 335 317 306 51 348 336 319 322 11 332 324 321 320 325 323 320 324 334 337 338 340 342 346 353 354 353 350 343 336 335 340 347 351 352 352
122 118 110 101 104 108 116 116 106 103 104 103 102 102 103 102 105 125 133 134 120 131 129 132 171 134 138 37 19 18 28 359 2 1 8 40 19 347 356 303 286 277 41 355 342 313 303 351 339 333 317 319 319 314 317 325 334 337 339 340 339 342 347 352 352 351 349 344 339 339 344 350 351 351
131 129 123 124 124 125 119 112 113 114 106 104 105 103 99 101 111 110 111 122 143 153 135 139 193 186 180 107 13 218 133 134 23 339 349 346 342 284 300 284 275 301 27 16 335 309 296 344 330 329 311 318 318 316 318 323 331 338 340 339 339 340 344 348 350 349 350 350 346 342 342 347 349 349
146 144 140 138 132 118 116 121 118 112 110 110 101 94 97 105 103 105 112 123 137 152 150 147 157 242 162 176 218 228 147 107 316 331 309 324 331 319 294 277 271 274 331 266 241 302 303 332 340 318 310 319 320 313 311 321 330 339 339 339 339 340 344 347 348 347 346 349 353 350 345 345 348 348
145 148 140 133 135 143 147 156 140 123 126 119 114 112 116 119 127 122 128 150 160 165 154 169 185 204 204 203 216 207 175 193 198 185 226 256 249 273 283 289 260 296 257 184 110 275 289 333 352 303 305 319 316 307 314 322 331 338 340 339 340 342 346 348 350 349 346 346 351 353 350 346 347 346
156 152 142 138 141 143 151 166 153 136 131 123 120 121 124 124 130 179 209 88 25 71 177 189 201 218 200 197 206 205 197 210 178 204 262 191 2 1 357 325 305 309 299 286 183 282 299 304 299 290 305 323 317 313 316 322 332 336 339 339 341 342 347 350 352 353 349 345 349 351 353 349 346 345
162 157 148 144 141 139 147 162 149 144 127 119 128 132 137 130 131 250 307 12 345 264 236 234 238 236 243 234 230 244 248 241 206 35 359 314 35 28 351 315 341 309 316 308 146 214 297 305 332 304 302 315 301 304 313 325 330 335 339 341 341 341 348 352 353 354 352 347 348 350 353 355 348 344
164 163 155 146 143 142 155 161 158 151 139 142 149 143 134 150 223 271 314 329 314 312 269 263 275 267 255 249 252 240 243 224 179 148 235 232 109 324 207 275 294 294 317 285 105 351 275 304 326 315 305 332 288 303 317 329 330 334 340 341 341 343 349 353 354 354 353 350 348 349 351 356 354 346
160 161 154 151 148 148 154 155 151 152 149 153 163 159 147 162 205 237 293 21 349 355 357 349 353 4 6 64 208 282 357 137 187 191 214 159 175 263 289 282 324 345 306 279 135 12 305 346 315 52 334 334 296 299 322 329 329 332 339 341 340 345 351 354 355 354 356 353 349 348 349 353 360 348
142 145 148 155 150 145 149 142 126 128 141 148 155 141 154 163 215 218 170 211 76 331 15 314 321 288 289 341 10 328 16 93 198 203 210 193 187 215 263 277 203 240 253 270 12 7 272 105 320 336 282 309 320 325 334 326 328 326 341 346 348 344 349 355 355 356 355 353 349 349 348 349 0 355
154 160 161 164 161 150 147 135 126 119 118 127 138 151 161 186 173 130 141 206 102 21 0 338 4 11 12 13 355 348 304 256 222 225 227 204 194 204 265 299 311 276 255 253 163 65 287 322 335 337 337 341 275 321 310 317 321 333 341 346 347 342 349 354 354 353 353 350 348 350 350 349 351 1
161 168 168 166 175 159 148 141 133 128 127 123 106 125 135 139 138 177 160 101 61 25 32 43 58 50 61 289 6 4 11 343 341 290 237 200 196 211 229 215 191 238 288 295 30 1 348 343 2 346 316 350 308 324 322 324 313 329 340 349 347 339 350 351 352 353 353 350 348 351 350 349 352 354
175 173 170 173 170 163 154 148 140 134 131 114 123 136 140 159 179 149 107 108 76 50 50 64 82 66 6 20 28 346 327 318 323 314 315 319 354 324 248 223 199 201 249 293 312 134 42 341 350 25 320 307 321 328 335 332 329 333 344 352 346 342 349 352 354 351 350 349 344 346 349 352 354 359
169 169 176 177 174 166 161 154 145 144 141 134 137 132 146 162 155 109 86 60 69 83 66 75 106 89 279 344 295 273 247 250 294 294 299 353 331 320 320 309 215 226 253 272 310 26 39 13 338 339 328 345 346 338 326 304 308 334 345 341 343 344 348 357 351 349 349 347 348 349 354 354 356 1
175 180 175 174 169 169 164 157 146 139 135 130 133 140 162 162 103 92 94 108 91 83 130 161 172 249 250 218 223 250 266 273 300 339 342 343 348 292 257 307 311 297 326 339 354 9 23 23 344 331 350 358 7 325 333 318 326 342 351 346 349 343 345 351 346 348 347 348 349 351 355 351 356 1
173 167 170 169 167 162 160 151 155 163 170 141 139 151 162 142 133 131 121 109 111 158 196 158 174 181 250 249 243 247 273 26 13 350 346 351 336 4 10 359 337 332 340 344 348 358 5 3 358 355 351 351 355 340 331 341 342 347 347 349 333 308 341 350 352 348 349 346 345 348 348 358 1 6
149 161 163 172 173 170 169 154 149 141 131 116 117 118 157 157 154 157 154 171 167 192 188 186 213 227 250 291 35 12 22 356 294 142 307 338 304 353 347 16 324 334 326 333 338 0 359 355 354 16 11 337 349 343 329 9 0 345 340 342 347 350 330 341 345 345 344 341 336 349 356 0 5 10
145 141 131 121 112 123 118 121 113 120 108 139 176 230 199 167 157 164 171 159 165 200 236 174 169 148 45 99 327 342 337 308 294 301 16 357 302 328 351 5 327 313 317 332 340 346 359 356 353 352 14 19 5 333 351 23 353 336 332 337 340 328 336 346 343 341 342 338 351 356 354 1 4 7
92 102 122 138 149 169 168 185 197 207 215 248 228 231 244 192 145 140 139 179 226 200 186 151 160 184 120 102 355 38 334 300 292 0 342 309 269 323 65 7 282 312 327 326 329 337 345 345 350 355 357 1 3 345 34 7 342 338 335 333 339 338 340 342 341 340 339 355 355 347 356 358 6 4
136 148 155 176 180 186 181 191 205 211 212 218 239 246 245 228 196 176 180 195 228 197 196 166 153 197 175 245 289 287 281 292 300 298 104 314 18 5 353 325 309 314 303 304 327 335 335 346 349 348 357 347 333 349 90 50 339 331 333 332 341 343 340 340 342 340 347 353 343 354 354 354 354 1
148 154 166 188 197 206 197 193 204 209 204 220 222 240 239 256 234 214 195 217 209 194 198 180 194 165 169 217 216 230 246 257 290 317 31 71 51 85 250 341 325 335 338 341 344 336 348 349 360 359 358 354 349 353 94 55 23 344 345 350 349 348 345 342 341 341 348 351 2 359 345 349 352 347
158 164 168 181 200 199 204 218 215 202 209 217 216 226 235 249 240 209 226 208 186 189 185 194 207 191 209 218 224 219 238 244 281 318 332 356 359 352 12 278 275 307 331 9 342 334 355 12 15 22 6 351 3 345 338 341 343 37 10 346 343 352 339 337 334 340 356 359 356 1 356 347 332 336
160 172 174 187 198 193 209 213 205 211 207 212 219 212 217 235 239 219 228 155 184 184 189 189 199 200 211 219 222 226 244 315 286 322 334 333 21 299 354 346 5 357 11 352 337 336 7 23 16 29 13 8 7 337 307 303 325 337 74 12 349 355 347 337 348 355 353 349 350 359 343 330 325 330
169 176 187 199 201 205 213 213 195 207 215 217 221 224 230 237 240 234 181 158 200 188 191 189 203 205 212 190 200 243 249 192 193 242 331 24 22 353 59 27 342 3 348 328 349 353 6 33 26 15 35 8 341 325 321 312 338 334 0 34 14 342 344 356 354 350 336 340 348 333 333 347 335 324
175 181 189 197 203 201 207 211 193 205 214 217 221 223 227 234 227 216 185 199 202 186 193 191 205 215 208 185 198 214 235 107 91 62 64 291 202 140 47 62 35 346 16 357 349 2 2 25 10 10 356 357 320 286 266 273 289 291 331 357 40 11 356 337 338 337 345 352 343 330 331 309 269 333
202 191 191 193 201 197 210 198 197 209 216 221 221 224 218 220 207 197 200 201 195 196 185 198 192 120 165 182 171 143 115 142 141 151 179 187 199 136 106 118 101 348 18 14 8 347 6 359 352 341 315 297 272 266 245 244 257 289 301 341 19 28 6 358 1 349 347 344 332 353 351 349 358 341
202 206 213 202 200 194 201 202 202 206 221 229 229 222 213 207 192 198 197 191 186 180 194 183 145 168 175 172 159 143 132 125 130 167 178 172 129 106 98 102 64 34 60 10 354 350 347 328 304 298 293 293 289 322 37 14 355 334 349 340 347 358 1 4 357 360 345 331 353 359 1 355 331 345
200 210 212 202 203 207 196 203 204 210 230 232 230 217 207 196 203 194 190 187 181 179 163 162 160 142 165 157 142 122 126 148 147 159 169 146 113 89 75 83 76 13 63 22 333 315 298 312 327 343 355 358 15 40 19 346 321 324 327 325 327 342 344 350 352 358 7 21 18 14 1 349 349 3
205 212 213 213 212 212 204 215 220 213 230 232 234 211 193 186 169 162 162 166 161 142 141 143 147 161 157 146 139 134 127 130 140 138 137 124 121 108 88 85 104 110 106 311 298 297 324 335 354 356 357 29 17 70 18 319 320 326 327 333 333 334 336 346 343 350 0 31 38 28 19 2 358 358
202 203 212 212 217 221 217 221 236 235 229 227 223 200 187 163 164 170 159 155 148 146 148 151 169 154 144 141 127 113 117 141 147 142 138 141 129 121 124 117 91 71 57 27 347 349 338 346 350 8 20 5 337 13 354 347 351 343 329 318 325 345 341 331 333 341 355 4 21 18 13 13 9 358
197 202 207 216 223 237 236 233 233 245 249 223 182 191 160 137 146 149 148 139 138 144 155 158 148 147 139 132 123 129 147 135 128 126 126 114 108 106 111 116 90 54 45 19 45 353 346 344 339 5 24 350 341 5 348 359 341 344 341 349 346 340 332 336 346 352 347 343 349 359 356 357 0 354